Voltar ao catálogo

QIANFAN-144

AtivoComunicaçõesPO
NORAD 69090·PAYLOAD·🇨🇳 China

Lançado May 12, 2026 de Taiyuan Satellite Launch Center

Loading…

Próximas Passagens (próximas 24 horas)

TLE

AtualizadoSource: Space-Track

Época: Sep 14, 2026, 21:29 UTC

1 69090U 26104T   26257.89522376  .00000112  00000-0  15458-3 0  9991
2 69090  88.9912 332.3107 0002521 106.2679 253.8750 13.51031027 17273

Acompanhe QIANFAN-144 em tempo real com AllMySat

Download on the App Store